Powrót do katalogu

GECAM-B

AktywnyNaukaVLEO
NORAD 47235·PAYLOAD·🇨🇳 China

Wystrzelony Dec 9, 2020 z Xichang Satellite Launch Center

Loading…

Następne Przeloty (najbliższe 24 godziny)

TLE

NieaktualneSource: Space-Track

Epoka: Jun 17, 2026, 05:40 UTC

1 47235U 20094B   26168.23651533  .00002046  00000-0  14016-3 0  9994
2 47235  28.9978  15.0776 0010587 333.3126  26.6927 15.02194018301731

Śledź GECAM-B w czasie rzeczywistym z AllMySat

Download on the App Store